{"data":{"norad_id":45026,"intl_designator":"2020-005A","name":"GSAT-30","alt_names":[],"object_type":"PAYLOAD","status":"ACTIVE","operator":null,"country":"IND","launch_date":"2020-01-16","launch_site_code":"FRGUI","launch_vehicle":null,"mission":null,"orbit_class":"UNKNOWN","rcs_meters":null,"size_class":null,"mass_kg":null,"dimensions":null,"purposes":["comms"],"wikipedia_slug":null,"has_3d_model":false,"image_url":null,"decayed_at":null,"tle_current":{"epoch":"2026-09-20T03:37:48.337824Z","epoch_age_seconds":52178,"freshness":"FRESH","line1":"1 45026U 20005A   26263.15125391 -.00000169  00000+0  00000+0 0  9995","line2":"2 45026   0.0269 103.7622 0001976  31.5002   1.2502  1.00272717 24464","mean_motion":1.00272717,"eccentricity":0.0001976,"inclination_deg":0.0269,"raan_deg":103.7622,"arg_perigee_deg":31.5002,"mean_anomaly_deg":1.2502,"bstar":0,"rev_number":2446,"period_min":1436.0835560086,"perigee_km":35778.001990373,"apogee_km":35794.66538919,"semimajor_km":42164.470689782,"source":"CELESTRAK","updated_at":"2026-09-20T09:00:35.292221Z"}}}